Time,TemperatureF,DewpointF,PressureIn,WindDirection,WindDirectionDegrees,WindSpeedMPH,WindSpeedGustMPH,Humidity,HourlyPrecipIn,Conditions,Clouds,dailyrainin,SoftwareType,DateUTC
2013-02-15 00:03:00,52.4,45.4,30.19,SW,216,0.0,0.0,77,0.00,,,0.00,WeatherTracker,2013-02-15 08:03:00,
2013-02-15 00:08:00,52.3,45.3,30.19,SW,215,0.0,0.0,77,0.00,,,0.00,WeatherTracker,2013-02-15 08:08:00,
2013-02-15 00:13:00,52.4,45.7,30.19,SW,215,0.0,0.0,78,0.00,,,0.00,WeatherTracker,2013-02-15 08:13:00,
2013-02-15 00:18:00,52.5,45.8,30.19,SW,215,0.0,0.0,78,0.00,,,0.00,WeatherTracker,2013-02-15 08:18:00,
2013-02-15 00:23:00,52.7,46.0,30.19,SW,215,0.0,0.0,78,0.00,,,0.00,WeatherTracker,2013-02-15 08:23:00,
2013-02-15 00:28:00,52.6,45.9,30.19,SW,215,0.0,0.0,78,0.00,,,0.00,WeatherTracker,2013-02-15 08:28:00,
2013-02-15 00:34:00,52.5,45.8,30.19,SW,215,0.0,0.0,78,0.00,,,0.00,WeatherTracker,2013-02-15 08:34:00,
2013-02-15 00:39:00,52.6,45.9,30.19,SW,215,0.0,0.0,78,0.00,,,0.00,WeatherTracker,2013-02-15 08:39:00,
2013-02-15 00:44:00,52.6,45.9,30.19,SW,215,0.0,0.0,78,0.00,,,0.00,WeatherTracker,2013-02-15 08:44:00,
2013-02-15 00:49:00,52.4,45.7,30.19,SW,215,0.0,0.0,78,0.00,,,0.00,WeatherTracker,2013-02-15 08:49:00,
2013-02-15 00:54:00,52.2,45.9,30.19,SW,215,0.0,0.0,79,0.00,,,0.00,WeatherTracker,2013-02-15 08:54:00,
2013-02-15 00:59:00,51.9,45.6,30.19,SW,215,0.0,0.0,79,0.00,,,0.00,WeatherTracker,2013-02-15 08:59:00,
2013-02-15 01:04:00,51.5,44.9,30.19,SW,215,0.0,0.0,78,0.00,,,0.00,WeatherTracker,2013-02-15 09:04:00,
2013-02-15 01:09:00,51.4,45.4,30.19,SSW,211,0.0,0.0,80,0.00,,,0.00,WeatherTracker,2013-02-15 09:09:00,
2013-02-15 01:14:00,51.4,45.4,30.19,SSE,152,0.0,0.0,80,0.00,,,0.00,WeatherTracker,2013-02-15 09:14:00,
2013-02-15 01:19:00,51.4,45.4,30.20,SSE,153,0.0,0.0,80,0.00,,,0.00,WeatherTracker,2013-02-15 09:19:00,
2013-02-15 01:24:00,51.4,45.8,30.20,SSE,152,0.0,0.0,81,0.00,,,0.00,WeatherTracker,2013-02-15 09:24:00,
2013-02-15 01:29:00,51.2,45.2,30.20,SSE,153,0.0,0.0,80,0.00,,,0.00,WeatherTracker,2013-02-15 09:29:00,
2013-02-15 01:34:00,51.1,45.5,30.20,SSE,152,0.0,0.0,81,0.00,,,0.00,WeatherTracker,2013-02-15 09:34:00,
2013-02-15 01:39:00,51.1,45.8,30.20,SSE,152,0.0,0.0,82,0.00,,,0.00,WeatherTracker,2013-02-15 09:39:00,
2013-02-15 01:44:00,51.2,45.6,30.20,SSE,153,0.0,0.0,81,0.00,,,0.00,WeatherTracker,2013-02-15 09:44:00,
2013-02-15 01:49:00,51.1,45.8,30.20,SSE,153,0.0,0.0,82,0.00,,,0.00,WeatherTracker,2013-02-15 09:49:00,
2013-02-15 01:54:00,51.1,45.8,30.20,SSE,153,0.0,0.0,82,0.00,,,0.00,WeatherTracker,2013-02-15 09:54:00,
2013-02-15 01:59:00,50.9,45.6,30.20,SSE,152,0.0,0.0,82,0.00,,,0.00,WeatherTracker,2013-02-15 09:59:00,
2013-02-15 02:04:00,50.8,45.2,30.20,SSE,152,0.0,0.0,81,0.00,,,0.00,WeatherTracker,2013-02-15 10:04:00,
2013-02-15 02:09:00,50.4,45.1,30.20,SSE,152,0.0,0.0,82,0.00,,,0.00,WeatherTracker,2013-02-15 10:09:00,
2013-02-15 02:14:00,50.3,45.3,30.20,SSE,153,0.0,0.0,83,0.00,,,0.00,WeatherTracker,2013-02-15 10:14:00,
2013-02-15 02:19:00,50.6,45.6,30.20,SSE,152,0.0,0.0,83,0.00,,,0.00,WeatherTracker,2013-02-15 10:19:00,
2013-02-15 02:24:00,50.7,45.4,30.20,SSE,152,0.0,0.0,82,0.00,,,0.00,WeatherTracker,2013-02-15 10:24:00,
2013-02-15 02:29:00,50.5,45.2,30.20,SSE,152,0.0,0.0,82,0.00,,,0.00,WeatherTracker,2013-02-15 10:29:00,
2013-02-15 02:34:00,50.2,44.9,30.19,SSE,152,0.0,0.0,82,0.00,,,0.00,WeatherTracker,2013-02-15 10:34:00,
2013-02-15 02:40:00,50.0,45.0,30.19,SSE,152,0.0,0.0,83,0.00,,,0.00,WeatherTracker,2013-02-15 10:40:00,
2013-02-15 02:45:00,50.1,45.1,30.19,SSE,152,0.0,0.0,83,0.00,,,0.00,WeatherTracker,2013-02-15 10:45:00,
2013-02-15 02:50:00,50.0,45.0,30.19,SSE,152,0.0,0.0,83,0.00,,,0.00,WeatherTracker,2013-02-15 10:50:00,
2013-02-15 02:55:00,49.9,44.9,30.19,SSE,152,0.0,0.0,83,0.00,,,0.00,WeatherTracker,2013-02-15 10:55:00,
2013-02-15 03:00:00,49.8,44.8,30.19,SSW,201,1.0,0.0,83,0.00,,,0.00,WeatherTracker,2013-02-15 11:00:00,
2013-02-15 03:05:00,49.8,44.8,30.19,SSW,203,0.0,0.0,83,0.00,,,0.00,WeatherTracker,2013-02-15 11:05:00,
2013-02-15 03:10:00,49.6,44.7,30.19,West,278,0.0,0.0,83,0.00,,,0.00,WeatherTracker,2013-02-15 11:10:00,
2013-02-15 03:15:00,49.5,44.9,30.19,SW,214,0.0,0.0,84,0.00,,,0.00,WeatherTracker,2013-02-15 11:15:00,
2013-02-15 03:20:00,49.6,44.7,30.19,SW,214,0.0,0.0,83,0.00,,,0.00,WeatherTracker,2013-02-15 11:20:00,
2013-02-15 03:25:00,49.6,44.7,30.19,SW,214,0.0,0.0,83,0.00,,,0.00,WeatherTracker,2013-02-15 11:25:00,
2013-02-15 03:30:00,49.7,44.7,30.19,SW,219,0.0,0.0,83,0.00,,,0.00,WeatherTracker,2013-02-15 11:30:00,
2013-02-15 03:35:00,49.9,44.9,30.19,SW,226,0.0,0.0,83,0.00,,,0.00,WeatherTracker,2013-02-15 11:35:00,
2013-02-15 03:40:00,50.0,44.7,30.19,SW,226,0.0,0.0,82,0.00,,,0.00,WeatherTracker,2013-02-15 11:40:00,
2013-02-15 03:45:00,49.9,44.6,30.19,SW,226,0.0,0.0,82,0.00,,,0.00,WeatherTracker,2013-02-15 11:45:00,
2013-02-15 03:50:00,49.8,44.5,30.19,SW,226,0.0,0.0,82,0.00,,,0.00,WeatherTracker,2013-02-15 11:50:00,
2013-02-15 03:55:00,49.9,44.9,30.18,SW,226,0.0,0.0,83,0.00,,,0.00,WeatherTracker,2013-02-15 11:55:00,
2013-02-15 04:00:00,49.7,44.4,30.19,SW,219,0.0,0.0,82,0.00,,,0.00,WeatherTracker,2013-02-15 12:00:00,
2013-02-15 04:05:00,49.5,44.2,30.19,SSW,212,0.0,0.0,82,0.00,,,0.00,WeatherTracker,2013-02-15 12:05:00,
2013-02-15 04:10:00,49.3,44.0,30.19,SSW,212,0.0,0.0,82,0.00,,,0.00,WeatherTracker,2013-02-15 12:10:00,
2013-02-15 04:15:00,49.3,44.0,30.19,SSE,150,0.0,0.0,82,0.00,,,0.00,WeatherTracker,2013-02-15 12:15:00,
2013-02-15 04:20:00,49.3,44.4,30.19,South,173,1.0,0.0,83,0.00,,,0.00,WeatherTracker,2013-02-15 12:20:00,
2013-02-15 04:25:00,49.2,43.9,30.19,SSW,198,0.0,0.0,82,0.00,,,0.00,WeatherTracker,2013-02-15 12:25:00,
2013-02-15 04:30:00,49.0,43.7,30.19,SSW,198,0.0,0.0,82,0.00,,,0.00,WeatherTracker,2013-02-15 12:30:00,
2013-02-15 04:35:00,49.1,43.5,30.19,SSW,200,0.0,0.0,81,0.00,,,0.00,WeatherTracker,2013-02-15 12:35:00,
2013-02-15 04:40:00,49.1,43.2,30.19,SSW,200,0.0,0.0,80,0.00,,,0.00,WeatherTracker,2013-02-15 12:40:00,
2013-02-15 04:45:00,49.1,42.9,30.19,SSW,200,0.0,0.0,79,0.00,,,0.00,WeatherTracker,2013-02-15 12:45:00,
2013-02-15 04:50:00,49.1,42.9,30.19,SSW,200,0.0,0.0,79,0.00,,,0.00,WeatherTracker,2013-02-15 12:50:00,
2013-02-15 04:56:00,49.0,42.8,30.19,SSW,200,0.0,0.0,79,0.00,,,0.00,WeatherTracker,2013-02-15 12:56:00,
2013-02-15 05:01:00,49.4,42.8,30.20,SSW,207,0.0,0.0,78,0.00,,,0.00,WeatherTracker,2013-02-15 13:01:00,
2013-02-15 05:06:00,49.9,42.6,30.20,SSW,207,0.0,0.0,76,0.00,,,0.00,WeatherTracker,2013-02-15 13:06:00,
2013-02-15 05:11:00,50.0,42.4,30.20,SSW,207,0.0,0.0,75,0.00,,,0.00,WeatherTracker,2013-02-15 13:11:00,
2013-02-15 05:16:00,49.9,42.3,30.20,SSW,207,0.0,0.0,75,0.00,,,0.00,WeatherTracker,2013-02-15 13:16:00,
2013-02-15 05:21:00,49.7,42.1,30.20,SSW,207,0.0,0.0,75,0.00,,,0.00,WeatherTracker,2013-02-15 13:21:00,
2013-02-15 05:26:00,49.5,41.9,30.20,SSW,207,0.0,0.0,75,0.00,,,0.00,WeatherTracker,2013-02-15 13:26:00,
2013-02-15 05:31:00,49.4,41.8,30.20,SSW,207,0.0,0.0,75,0.00,,,0.00,WeatherTracker,2013-02-15 13:31:00,
2013-02-15 05:36:00,49.4,41.8,30.20,SSW,207,0.0,0.0,75,0.00,,,0.00,WeatherTracker,2013-02-15 13:36:00,
2013-02-15 05:41:00,49.5,41.9,30.20,SSW,207,0.0,0.0,75,0.00,,,0.00,WeatherTracker,2013-02-15 13:41:00,
2013-02-15 05:46:00,49.5,41.9,30.20,SSW,207,0.0,0.0,75,0.00,,,0.00,WeatherTracker,2013-02-15 13:46:00,
2013-02-15 05:51:00,49.6,42.0,30.20,SSW,207,0.0,0.0,75,0.00,,,0.00,WeatherTracker,2013-02-15 13:51:00,
2013-02-15 05:56:00,49.5,41.9,30.20,SSW,207,0.0,0.0,75,0.00,,,0.00,WeatherTracker,2013-02-15 13:56:00,
2013-02-15 06:01:00,49.5,41.9,30.20,SSW,207,0.0,0.0,75,0.00,,,0.00,WeatherTracker,2013-02-15 14:01:00,
2013-02-15 06:06:00,49.4,41.8,30.20,SSW,207,0.0,0.0,75,0.00,,,0.00,WeatherTracker,2013-02-15 14:06:00,
2013-02-15 06:11:00,49.4,42.2,30.20,SSW,207,0.0,0.0,76,0.00,,,0.00,WeatherTracker,2013-02-15 14:11:00,
2013-02-15 06:16:00,49.4,42.2,30.20,SSW,207,0.0,0.0,76,0.00,,,0.00,WeatherTracker,2013-02-15 14:16:00,
2013-02-15 06:21:00,49.2,42.0,30.20,SSW,207,1.0,0.0,76,0.00,,,0.00,WeatherTracker,2013-02-15 14:21:00,
2013-02-15 06:26:00,49.0,41.8,30.21,SSW,207,0.0,0.0,76,0.00,,,0.00,WeatherTracker,2013-02-15 14:26:00,
2013-02-15 06:31:00,49.0,41.8,30.21,SSW,207,0.0,0.0,76,0.00,,,0.00,WeatherTracker,2013-02-15 14:31:00,
2013-02-15 06:36:00,48.9,41.7,30.21,SSW,207,0.0,0.0,76,0.00,,,0.00,WeatherTracker,2013-02-15 14:36:00,
2013-02-15 06:41:00,48.8,41.6,30.21,SSW,207,1.0,0.0,76,0.00,,,0.00,WeatherTracker,2013-02-15 14:41:00,
2013-02-15 06:46:00,48.8,42.6,30.21,SSW,207,0.0,0.0,79,0.00,,,0.00,WeatherTracker,2013-02-15 14:46:00,
2013-02-15 06:51:00,49.0,42.4,30.21,SSW,207,0.0,0.0,78,0.00,,,0.00,WeatherTracker,2013-02-15 14:51:00,
2013-02-15 06:56:00,48.7,42.2,30.21,SSW,207,0.0,0.0,78,0.00,,,0.00,WeatherTracker,2013-02-15 14:56:00,
2013-02-15 07:02:00,48.5,42.0,30.21,SSW,207,0.0,0.0,78,0.00,,,0.00,WeatherTracker,2013-02-15 15:02:00,
2013-02-15 07:07:00,48.5,42.0,30.21,SSW,207,0.0,0.0,78,0.00,,,0.00,WeatherTracker,2013-02-15 15:07:00,
2013-02-15 07:12:00,48.7,42.2,30.21,SSW,207,0.0,0.0,78,0.00,,,0.00,WeatherTracker,2013-02-15 15:12:00,
2013-02-15 07:17:00,49.1,42.5,30.21,SSW,207,0.0,0.0,78,0.00,,,0.00,WeatherTracker,2013-02-15 15:17:00,
2013-02-15 07:22:00,49.7,42.8,30.22,SSW,207,0.0,0.0,77,0.00,,,0.00,WeatherTracker,2013-02-15 15:22:00,
2013-02-15 07:27:00,50.7,43.8,30.22,SSW,207,0.0,0.0,77,0.00,,,0.00,WeatherTracker,2013-02-15 15:27:00,
2013-02-15 07:32:00,51.0,43.4,30.22,SSW,207,0.0,0.0,75,0.00,,,0.00,WeatherTracker,2013-02-15 15:32:00,
2013-02-15 07:37:00,51.2,43.6,30.22,SSW,207,0.0,0.0,75,0.00,,,0.00,WeatherTracker,2013-02-15 15:37:00,
2013-02-15 07:42:00,51.7,43.7,30.22,SSW,207,0.0,0.0,74,0.00,,,0.00,WeatherTracker,2013-02-15 15:42:00,
2013-02-15 07:47:00,52.4,44.0,30.23,SSW,207,0.0,0.0,73,0.00,,,0.00,WeatherTracker,2013-02-15 15:47:00,
2013-02-15 07:52:00,53.1,44.7,30.23,SSW,207,0.0,0.0,73,0.00,,,0.00,WeatherTracker,2013-02-15 15:52:00,
2013-02-15 07:57:00,53.9,44.7,30.23,SSW,207,0.0,0.0,71,0.00,,,0.00,WeatherTracker,2013-02-15 15:57:00,
2013-02-15 08:02:00,54.9,44.9,30.23,SSW,207,0.0,0.0,69,0.00,,,0.00,WeatherTracker,2013-02-15 16:02:00,
2013-02-15 08:07:00,55.5,45.5,30.23,SSW,207,1.0,0.0,69,0.00,,,0.00,WeatherTracker,2013-02-15 16:07:00,
2013-02-15 08:12:00,57.0,46.5,30.23,SSW,207,0.0,0.0,68,0.00,,,0.00,WeatherTracker,2013-02-15 16:12:00,
2013-02-15 08:17:00,58.0,46.3,30.23,SSW,207,0.0,0.0,65,0.00,,,0.00,WeatherTracker,2013-02-15 16:17:00,
2013-02-15 08:22:00,58.7,45.3,30.23,East,96,0.0,0.0,61,0.00,,,0.00,WeatherTracker,2013-02-15 16:22:00,
2013-02-15 08:27:00,59.1,45.2,30.23,East,98,0.0,0.0,60,0.00,,,0.00,WeatherTracker,2013-02-15 16:27:00,
2013-02-15 08:32:00,59.2,44.0,30.23,ESE,111,1.0,0.0,57,0.00,,,0.00,WeatherTracker,2013-02-15 16:32:00,
2013-02-15 08:37:00,59.1,43.9,30.24,East,91,0.0,0.0,57,0.00,,,0.00,WeatherTracker,2013-02-15 16:37:00,
2013-02-15 08:42:00,59.3,44.1,30.24,ESE,111,3.0,0.0,57,0.00,,,0.00,WeatherTracker,2013-02-15 16:42:00,
2013-02-15 08:47:00,59.1,43.9,30.24,ESE,116,1.0,0.0,57,0.00,,,0.00,WeatherTracker,2013-02-15 16:47:00,
2013-02-15 08:52:00,59.3,44.1,30.24,ENE,67,1.0,0.0,57,0.00,,,0.00,WeatherTracker,2013-02-15 16:52:00,
2013-02-15 08:58:00,59.4,44.2,30.24,ESE,104,3.0,0.0,57,0.00,,,0.00,WeatherTracker,2013-02-15 16:58:00,
2013-02-15 09:03:00,59.3,44.1,30.24,ESE,117,2.0,0.0,57,0.00,,,0.00,WeatherTracker,2013-02-15 17:03:00,
2013-02-15 09:08:00,59.7,44.0,30.24,ESE,103,4.0,0.0,56,0.00,,,0.00,WeatherTracker,2013-02-15 17:08:00,
2013-02-15 09:13:00,59.9,43.7,30.24,SE,143,2.0,0.0,55,0.00,,,0.00,WeatherTracker,2013-02-15 17:13:00,
2013-02-15 09:18:00,60.1,44.3,30.24,East,86,1.0,0.0,56,0.00,,,0.00,WeatherTracker,2013-02-15 17:18:00,
2013-02-15 09:23:00,60.5,44.7,30.24,East,81,3.0,0.0,56,0.00,,,0.00,WeatherTracker,2013-02-15 17:23:00,
2013-02-15 09:28:00,60.5,44.2,30.24,SE,129,3.0,0.0,55,0.00,,,0.00,WeatherTracker,2013-02-15 17:28:00,
2013-02-15 09:33:00,60.5,44.2,30.24,SE,143,4.0,0.0,55,0.00,,,0.00,WeatherTracker,2013-02-15 17:33:00,
2013-02-15 09:38:00,60.9,44.6,30.24,ESE,122,1.0,0.0,55,0.00,,,0.00,WeatherTracker,2013-02-15 17:38:00,
2013-02-15 09:43:00,60.8,43.6,30.24,ESE,105,1.0,0.0,53,0.00,,,0.00,WeatherTracker,2013-02-15 17:43:00,
2013-02-15 09:48:00,61.0,43.7,30.24,East,96,1.0,0.0,53,0.00,,,0.00,WeatherTracker,2013-02-15 17:48:00,
2013-02-15 09:53:00,61.5,44.2,30.25,SW,218,0.0,0.0,53,0.00,,,0.00,WeatherTracker,2013-02-15 17:53:00,
2013-02-15 09:58:00,61.8,44.0,30.24,SSE,153,1.0,0.0,52,0.00,,,0.00,WeatherTracker,2013-02-15 17:58:00,
2013-02-15 10:03:00,62.2,43.8,30.24,ESE,103,2.0,0.0,51,0.00,,,0.00,WeatherTracker,2013-02-15 18:03:00,
2013-02-15 10:08:00,61.6,42.3,30.24,NE,51,4.0,0.0,49,0.00,,,0.00,WeatherTracker,2013-02-15 18:08:00,
2013-02-15 10:13:00,61.5,41.6,30.25,NNE,33,2.0,0.0,48,0.00,,,0.00,WeatherTracker,2013-02-15 18:13:00,
2013-02-15 10:18:00,61.6,41.2,30.25,NE,41,3.0,0.0,47,0.00,,,0.00,WeatherTracker,2013-02-15 18:18:00,
2013-02-15 10:23:00,61.7,40.7,30.25,ENE,65,5.0,0.0,46,0.00,,,0.00,WeatherTracker,2013-02-15 18:23:00,
2013-02-15 10:29:00,61.6,41.7,30.25,NE,44,2.0,0.0,48,0.00,,,0.00,WeatherTracker,2013-02-15 18:29:00,
2013-02-15 10:34:00,62.0,41.5,30.25,ENE,63,5.0,0.0,47,0.00,,,0.00,WeatherTracker,2013-02-15 18:34:00,
2013-02-15 10:39:00,62.2,41.2,30.25,SSE,158,2.0,0.0,46,0.00,,,0.00,WeatherTracker,2013-02-15 18:39:00,
2013-02-15 10:44:00,62.7,41.6,30.25,ESE,122,2.0,0.0,46,0.00,,,0.00,WeatherTracker,2013-02-15 18:44:00,
2013-02-15 10:49:00,62.8,41.1,30.25,NE,44,3.0,0.0,45,0.00,,,0.00,WeatherTracker,2013-02-15 18:49:00,
2013-02-15 10:54:00,62.6,41.0,30.25,ENE,77,6.0,0.0,45,0.00,,,0.00,WeatherTracker,2013-02-15 18:54:00,
2013-02-15 10:59:00,62.6,39.8,30.25,NE,37,3.0,0.0,43,0.00,,,0.00,WeatherTracker,2013-02-15 18:59:00,
2013-02-15 11:04:00,62.9,40.1,30.25,East,84,4.0,0.0,43,0.00,,,0.00,WeatherTracker,2013-02-15 19:04:00,
2013-02-15 11:09:00,63.1,40.8,30.25,ENE,68,3.0,0.0,44,0.00,,,0.00,WeatherTracker,2013-02-15 19:09:00,
2013-02-15 11:14:00,63.2,40.3,30.25,NE,36,2.0,0.0,43,0.00,,,0.00,WeatherTracker,2013-02-15 19:14:00,
2013-02-15 11:19:00,63.8,41.5,30.25,ENE,62,1.0,0.0,44,0.00,,,0.00,WeatherTracker,2013-02-15 19:19:00,
2013-02-15 11:24:00,64.2,40.6,30.25,ENE,63,2.0,0.0,42,0.00,,,0.00,WeatherTracker,2013-02-15 19:24:00,
2013-02-15 11:29:00,64.3,41.3,30.25,ENE,72,1.0,0.0,43,0.00,,,0.00,WeatherTracker,2013-02-15 19:29:00,
2013-02-15 11:34:00,64.7,41.1,30.24,ENE,70,2.0,0.0,42,0.00,,,0.00,WeatherTracker,2013-02-15 19:34:00,
2013-02-15 11:39:00,65.3,41.6,30.24,NW,324,1.0,0.0,42,0.00,,,0.00,WeatherTracker,2013-02-15 19:39:00,
2013-02-15 11:44:00,66.0,41.6,30.24,NNW,343,2.0,0.0,41,0.00,,,0.00,WeatherTracker,2013-02-15 19:44:00,
2013-02-15 11:49:00,66.1,41.7,30.24,NE,40,0.0,0.0,41,0.00,,,0.00,WeatherTracker,2013-02-15 19:49:00,
2013-02-15 11:54:00,66.2,41.8,30.24,NE,56,2.0,0.0,41,0.00,,,0.00,WeatherTracker,2013-02-15 19:54:00,
2013-02-15 11:59:00,66.4,41.3,30.24,ENE,65,3.0,0.0,40,0.00,,,0.00,WeatherTracker,2013-02-15 19:59:00,
2013-02-15 12:04:00,66.7,41.0,30.23,NNW,327,4.0,0.0,39,0.00,,,0.00,WeatherTracker,2013-02-15 20:04:00,
2013-02-15 12:09:00,67.4,41.6,30.23,ENE,64,4.0,0.0,39,0.00,,,0.00,WeatherTracker,2013-02-15 20:09:00,
2013-02-15 12:14:00,67.4,41.6,30.23,North,358,2.0,0.0,39,0.00,,,0.00,WeatherTracker,2013-02-15 20:14:00,
2013-02-15 12:19:00,67.4,41.6,30.23,ENE,75,7.0,0.0,39,0.00,,,0.00,WeatherTracker,2013-02-15 20:19:00,
2013-02-15 12:24:00,67.3,41.5,30.23,NNE,20,3.0,0.0,39,0.00,,,0.00,WeatherTracker,2013-02-15 20:24:00,
2013-02-15 12:30:00,67.2,41.4,30.23,NNE,22,3.0,0.0,39,0.00,,,0.00,WeatherTracker,2013-02-15 20:30:00,
2013-02-15 12:35:00,67.3,41.5,30.23,NNE,19,4.0,0.0,39,0.00,,,0.00,WeatherTracker,2013-02-15 20:35:00,
2013-02-15 12:40:00,67.6,41.1,30.22,ENE,61,2.0,0.0,38,0.00,,,0.00,WeatherTracker,2013-02-15 20:40:00,
2013-02-15 12:45:00,67.7,41.2,30.22,ENE,69,2.0,0.0,38,0.00,,,0.00,WeatherTracker,2013-02-15 20:45:00,
2013-02-15 12:50:00,68.2,40.9,30.22,NNW,347,7.0,0.0,37,0.00,,,0.00,WeatherTracker,2013-02-15 20:50:00,
2013-02-15 12:55:00,68.3,41.0,30.22,ENE,58,5.0,0.0,37,0.00,,,0.00,WeatherTracker,2013-02-15 20:55:00,
2013-02-15 13:00:00,68.1,40.8,30.21,NNE,19,4.0,0.0,37,0.00,,,0.00,WeatherTracker,2013-02-15 21:00:00,
2013-02-15 13:05:00,68.4,41.1,30.21,NNE,23,5.0,0.0,37,0.00,,,0.00,WeatherTracker,2013-02-15 21:05:00,
2013-02-15 13:10:00,68.4,41.1,30.21,ENE,63,5.0,0.0,37,0.00,,,0.00,WeatherTracker,2013-02-15 21:10:00,
2013-02-15 13:15:00,68.7,41.4,30.21,NW,326,0.0,0.0,37,0.00,,,0.00,WeatherTracker,2013-02-15 21:15:00,
2013-02-15 13:20:00,69.4,41.3,30.21,NNE,18,4.0,0.0,36,0.00,,,0.00,WeatherTracker,2013-02-15 21:20:00,
2013-02-15 13:25:00,69.5,41.4,30.20,NE,47,2.0,0.0,36,0.00,,,0.00,WeatherTracker,2013-02-15 21:25:00,
2013-02-15 13:30:00,69.6,41.5,30.20,NE,36,3.0,0.0,36,0.00,,,0.00,WeatherTracker,2013-02-15 21:30:00,
2013-02-15 13:35:00,69.9,41.7,30.20,NNW,340,3.0,0.0,36,0.00,,,0.00,WeatherTracker,2013-02-15 21:35:00,
2013-02-15 13:40:00,69.7,41.5,30.20,NNW,340,1.0,0.0,36,0.00,,,0.00,WeatherTracker,2013-02-15 21:40:00,
2013-02-15 13:45:00,69.6,42.2,30.20,NNE,23,5.0,0.0,37,0.00,,,0.00,WeatherTracker,2013-02-15 21:45:00,
2013-02-15 13:50:00,69.8,41.6,30.20,NW,312,5.0,0.0,36,0.00,,,0.00,WeatherTracker,2013-02-15 21:50:00,
2013-02-15 13:55:00,69.9,41.7,30.20,NW,304,6.0,0.0,36,0.00,,,0.00,WeatherTracker,2013-02-15 21:55:00,
2013-02-15 14:00:00,69.8,42.3,30.20,NNW,328,2.0,0.0,37,0.00,,,0.00,WeatherTracker,2013-02-15 22:00:00,
2013-02-15 14:06:00,69.9,41.7,30.20,WNW,284,2.0,0.0,36,0.00,,,0.00,WeatherTracker,2013-02-15 22:06:00,
2013-02-15 14:11:00,70.1,41.9,30.20,NNW,327,8.0,0.0,36,0.00,,,0.00,WeatherTracker,2013-02-15 22:11:00,
2013-02-15 14:16:00,70.0,41.8,30.20,NNW,343,3.0,0.0,36,0.00,,,0.00,WeatherTracker,2013-02-15 22:16:00,
2013-02-15 14:21:00,70.2,42.0,30.20,WNW,292,3.0,0.0,36,0.00,,,0.00,WeatherTracker,2013-02-15 22:21:00,
2013-02-15 14:26:00,70.4,41.4,30.19,NW,312,4.0,0.0,35,0.00,,,0.00,WeatherTracker,2013-02-15 22:26:00,
2013-02-15 14:31:00,70.7,41.7,30.19,NW,307,1.0,0.0,35,0.00,,,0.00,WeatherTracker,2013-02-15 22:31:00,
2013-02-15 14:36:00,70.9,42.6,30.20,WNW,294,6.0,0.0,36,0.00,,,0.00,WeatherTracker,2013-02-15 22:36:00,
2013-02-15 14:41:00,70.9,42.6,30.19,WNW,302,5.0,0.0,36,0.00,,,0.00,WeatherTracker,2013-02-15 22:41:00,
2013-02-15 14:46:00,71.0,42.0,30.19,WNW,301,3.0,0.0,35,0.00,,,0.00,WeatherTracker,2013-02-15 22:46:00,
2013-02-15 14:51:00,70.6,42.3,30.19,NW,325,9.0,0.0,36,0.00,,,0.00,WeatherTracker,2013-02-15 22:51:00,
2013-02-15 14:56:00,70.5,42.2,30.19,WNW,291,7.0,0.0,36,0.00,,,0.00,WeatherTracker,2013-02-15 22:56:00,
2013-02-15 15:01:00,70.7,42.4,30.19,NW,319,2.0,0.0,36,0.00,,,0.00,WeatherTracker,2013-02-15 23:01:00,
2013-02-15 15:06:00,70.7,41.7,30.19,WNW,302,6.0,0.0,35,0.00,,,0.00,WeatherTracker,2013-02-15 23:06:00,
2013-02-15 15:11:00,70.9,41.1,30.19,WNW,301,6.0,0.0,34,0.00,,,0.00,WeatherTracker,2013-02-15 23:11:00,
2013-02-15 15:16:00,70.8,41.0,30.19,WNW,295,4.0,0.0,34,0.00,,,0.00,WeatherTracker,2013-02-15 23:16:00,
2013-02-15 15:21:00,70.7,40.9,30.19,North,351,3.0,0.0,34,0.00,,,0.00,WeatherTracker,2013-02-15 23:21:00,
2013-02-15 15:26:00,70.7,40.9,30.19,WNW,302,3.0,0.0,34,0.00,,,0.00,WeatherTracker,2013-02-15 23:26:00,
2013-02-15 15:31:00,71.0,40.4,30.19,NW,312,6.0,0.0,33,0.00,,,0.00,WeatherTracker,2013-02-15 23:31:00,
2013-02-15 15:36:00,71.1,41.3,30.19,NW,325,4.0,0.0,34,0.00,,,0.00,WeatherTracker,2013-02-15 23:36:00,
2013-02-15 15:41:00,71.1,41.3,30.19,WNW,297,6.0,0.0,34,0.00,,,0.00,WeatherTracker,2013-02-15 23:41:00,
2013-02-15 15:46:00,71.2,41.4,30.19,WNW,290,3.0,0.0,34,0.00,,,0.00,WeatherTracker,2013-02-15 23:46:00,
2013-02-15 15:51:00,71.2,41.4,30.19,WNW,298,3.0,0.0,34,0.00,,,0.00,WeatherTracker,2013-02-15 23:51:00,
2013-02-15 15:56:00,71.3,41.5,30.19,NW,311,4.0,0.0,34,0.00,,,0.00,WeatherTracker,2013-02-15 23:56:00,
2013-02-15 16:01:00,71.1,41.3,30.18,NNE,12,3.0,0.0,34,0.00,,,0.00,WeatherTracker,2013-02-16 00:01:00,
2013-02-15 16:06:00,71.1,41.3,30.18,NNE,25,3.0,0.0,34,0.00,,,0.00,WeatherTracker,2013-02-16 00:06:00,
2013-02-15 16:11:00,70.9,41.1,30.19,NNW,333,5.0,0.0,34,0.00,,,0.00,WeatherTracker,2013-02-16 00:11:00,
2013-02-15 16:17:00,70.9,41.1,30.18,NW,318,5.0,0.0,34,0.00,,,0.00,WeatherTracker,2013-02-16 00:17:00,
2013-02-15 16:22:00,70.9,41.1,30.18,NW,318,4.0,0.0,34,0.00,,,0.00,WeatherTracker,2013-02-16 00:22:00,
2013-02-15 16:27:00,70.7,41.7,30.18,NW,314,3.0,0.0,35,0.00,,,0.00,WeatherTracker,2013-02-16 00:27:00,
2013-02-15 16:32:00,70.7,41.7,30.18,North,353,2.0,0.0,35,0.00,,,0.00,WeatherTracker,2013-02-16 00:32:00,
2013-02-15 16:37:00,70.5,41.5,30.18,WNW,301,5.0,0.0,35,0.00,,,0.00,WeatherTracker,2013-02-16 00:37:00,
2013-02-15 16:42:00,70.5,41.5,30.18,NNW,342,2.0,0.0,35,0.00,,,0.00,WeatherTracker,2013-02-16 00:42:00,
2013-02-15 16:47:00,70.6,41.6,30.18,WNW,284,2.0,0.0,35,0.00,,,0.00,WeatherTracker,2013-02-16 00:47:00,
2013-02-15 16:52:00,70.4,42.2,30.18,NW,313,3.0,0.0,36,0.00,,,0.00,WeatherTracker,2013-02-16 00:52:00,
2013-02-15 16:57:00,70.3,42.1,30.18,WNW,300,5.0,0.0,36,0.00,,,0.00,WeatherTracker,2013-02-16 00:57:00,
2013-02-15 17:02:00,70.1,41.9,30.18,NW,308,4.0,0.0,36,0.00,,,0.00,WeatherTracker,2013-02-16 01:02:00,
2013-02-15 17:07:00,70.0,42.5,30.18,WNW,293,2.0,0.0,37,0.00,,,0.00,WeatherTracker,2013-02-16 01:07:00,
2013-02-15 17:12:00,69.9,42.4,30.18,NW,315,3.0,0.0,37,0.00,,,0.00,WeatherTracker,2013-02-16 01:12:00,
2013-02-15 17:17:00,69.6,42.9,30.18,NW,311,2.0,0.0,38,0.00,,,0.00,WeatherTracker,2013-02-16 01:17:00,
2013-02-15 17:22:00,69.2,42.5,30.18,NW,312,4.0,0.0,38,0.00,,,0.00,WeatherTracker,2013-02-16 01:22:00,
2013-02-15 17:27:00,68.8,42.8,30.18,WNW,298,3.0,0.0,39,0.00,,,0.00,WeatherTracker,2013-02-16 01:27:00,
2013-02-15 17:32:00,68.4,42.5,30.18,West,281,2.0,0.0,39,0.00,,,0.00,WeatherTracker,2013-02-16 01:32:00,
2013-02-15 17:37:00,68.0,42.8,30.18,WNW,293,1.0,0.0,40,0.00,,,0.00,WeatherTracker,2013-02-16 01:37:00,
2013-02-15 17:42:00,67.7,42.5,30.18,WNW,287,1.0,0.0,40,0.00,,,0.00,WeatherTracker,2013-02-16 01:42:00,
2013-02-15 17:47:00,67.4,42.9,30.18,WNW,291,3.0,0.0,41,0.00,,,0.00,WeatherTracker,2013-02-16 01:47:00,
2013-02-15 17:52:00,67.1,42.6,30.18,WNW,286,2.0,0.0,41,0.00,,,0.00,WeatherTracker,2013-02-16 01:52:00,
2013-02-15 17:57:00,66.8,42.3,30.18,WNW,291,3.0,0.0,41,0.00,,,0.00,WeatherTracker,2013-02-16 01:57:00,
2013-02-15 18:02:00,66.6,42.8,30.18,West,281,1.0,0.0,42,0.00,,,0.00,WeatherTracker,2013-02-16 02:02:00,
2013-02-15 18:07:00,66.4,42.6,30.18,WNW,290,0.0,0.0,42,0.00,,,0.00,WeatherTracker,2013-02-16 02:07:00,
2013-02-15 18:13:00,66.2,43.0,30.18,WNW,290,0.0,0.0,43,0.00,,,0.00,WeatherTracker,2013-02-16 02:13:00,
2013-02-15 18:18:00,65.9,42.8,30.18,WNW,287,1.0,0.0,43,0.00,,,0.00,WeatherTracker,2013-02-16 02:18:00,
2013-02-15 18:23:00,65.8,43.3,30.18,West,263,1.0,0.0,44,0.00,,,0.00,WeatherTracker,2013-02-16 02:23:00,
2013-02-15 18:28:00,65.5,43.0,30.18,WSW,255,2.0,0.0,44,0.00,,,0.00,WeatherTracker,2013-02-16 02:28:00,
2013-02-15 18:33:00,65.2,43.3,30.18,WSW,245,1.0,0.0,45,0.00,,,0.00,WeatherTracker,2013-02-16 02:33:00,
2013-02-15 18:38:00,64.9,43.0,30.18,West,276,1.0,0.0,45,0.00,,,0.00,WeatherTracker,2013-02-16 02:38:00,
2013-02-15 18:43:00,64.7,43.4,30.19,West,278,1.0,0.0,46,0.00,,,0.00,WeatherTracker,2013-02-16 02:43:00,
2013-02-15 18:48:00,64.6,43.3,30.19,WNW,297,2.0,0.0,46,0.00,,,0.00,WeatherTracker,2013-02-16 02:48:00,
2013-02-15 18:53:00,64.5,43.3,30.19,West,280,1.0,0.0,46,0.00,,,0.00,WeatherTracker,2013-02-16 02:53:00,
2013-02-15 18:58:00,64.4,43.2,30.19,WNW,284,2.0,0.0,46,0.00,,,0.00,WeatherTracker,2013-02-16 02:58:00,
2013-02-15 19:03:00,64.2,43.0,30.19,WNW,286,2.0,0.0,46,0.00,,,0.00,WeatherTracker,2013-02-16 03:03:00,
2013-02-15 19:08:00,64.2,43.0,30.19,NW,307,2.0,0.0,46,0.00,,,0.00,WeatherTracker,2013-02-16 03:08:00,
2013-02-15 19:13:00,64.1,42.9,30.19,WNW,293,3.0,0.0,46,0.00,,,0.00,WeatherTracker,2013-02-16 03:13:00,
2013-02-15 19:18:00,63.9,42.7,30.19,WNW,283,2.0,0.0,46,0.00,,,0.00,WeatherTracker,2013-02-16 03:18:00,
2013-02-15 19:23:00,63.7,43.1,30.20,WNW,290,2.0,0.0,47,0.00,,,0.00,WeatherTracker,2013-02-16 03:23:00,
2013-02-15 19:28:00,63.3,42.7,30.20,West,262,1.0,0.0,47,0.00,,,0.00,WeatherTracker,2013-02-16 03:28:00,
2013-02-15 19:33:00,63.1,43.1,30.19,West,259,1.0,0.0,48,0.00,,,0.00,WeatherTracker,2013-02-16 03:33:00,
2013-02-15 19:38:00,62.8,42.8,30.20,WSW,243,0.0,0.0,48,0.00,,,0.00,WeatherTracker,2013-02-16 03:38:00,
2013-02-15 19:43:00,62.6,43.2,30.20,WNW,288,1.0,0.0,49,0.00,,,0.00,WeatherTracker,2013-02-16 03:43:00,
2013-02-15 19:48:00,62.5,43.1,30.20,West,259,2.0,0.0,49,0.00,,,0.00,WeatherTracker,2013-02-16 03:48:00,
2013-02-15 19:53:00,62.4,43.0,30.20,WNW,300,2.0,0.0,49,0.00,,,0.00,WeatherTracker,2013-02-16 03:53:00,
2013-02-15 19:59:00,62.3,42.9,30.20,West,270,1.0,0.0,49,0.00,,,0.00,WeatherTracker,2013-02-16 03:59:00,
2013-02-15 20:04:00,62.1,43.2,30.20,WSW,249,0.0,0.0,50,0.00,,,0.00,WeatherTracker,2013-02-16 04:04:00,
2013-02-15 20:09:00,62.0,43.1,30.20,WSW,245,1.0,0.0,50,0.00,,,0.00,WeatherTracker,2013-02-16 04:09:00,
2013-02-15 20:14:00,61.8,43.0,30.20,West,271,0.0,0.0,50,0.00,,,0.00,WeatherTracker,2013-02-16 04:14:00,
2013-02-15 20:19:00,61.7,43.4,30.20,West,276,1.0,0.0,51,0.00,,,0.00,WeatherTracker,2013-02-16 04:19:00,
2013-02-15 20:24:00,61.6,43.3,30.20,WSW,250,0.0,0.0,51,0.00,,,0.00,WeatherTracker,2013-02-16 04:24:00,
2013-02-15 20:29:00,61.4,43.1,30.20,WSW,250,1.0,0.0,51,0.00,,,0.00,WeatherTracker,2013-02-16 04:29:00,
2013-02-15 20:34:00,61.3,43.0,30.20,WSW,248,1.0,0.0,51,0.00,,,0.00,WeatherTracker,2013-02-16 04:34:00,
2013-02-15 20:39:00,61.2,42.9,30.20,WSW,245,1.0,0.0,51,0.00,,,0.00,WeatherTracker,2013-02-16 04:39:00,
2013-02-15 20:44:00,61.1,43.3,30.20,WSW,245,2.0,0.0,52,0.00,,,0.00,WeatherTracker,2013-02-16 04:44:00,
2013-02-15 20:49:00,60.9,43.2,30.20,WSW,250,0.0,0.0,52,0.00,,,0.00,WeatherTracker,2013-02-16 04:49:00,
2013-02-15 20:54:00,60.8,43.1,30.21,WSW,245,0.0,0.0,52,0.00,,,0.00,WeatherTracker,2013-02-16 04:54:00,
2013-02-15 20:59:00,60.7,43.0,30.21,WSW,245,1.0,0.0,52,0.00,,,0.00,WeatherTracker,2013-02-16 04:59:00,
2013-02-15 21:00:00,60.8,43.1,30.21,WSW,246,2.0,0.0,52,0.00,,,0.00,WeatherTracker,2013-02-16 05:00:00,
2013-02-15 21:01:00,60.8,43.1,30.21,WSW,240,1.0,0.0,52,0.00,,,0.00,WeatherTracker,2013-02-16 05:01:00,
2013-02-15 21:06:00,60.8,43.1,30.21,WSW,250,1.0,0.0,52,0.00,,,0.00,WeatherTracker,2013-02-16 05:06:00,
2013-02-15 21:11:00,60.5,42.8,30.21,WSW,248,1.0,0.0,52,0.00,,,0.00,WeatherTracker,2013-02-16 05:11:00,
2013-02-15 21:16:00,60.3,43.1,30.21,WSW,244,1.0,0.0,53,0.00,,,0.00,WeatherTracker,2013-02-16 05:16:00,
2013-02-15 21:21:00,60.2,43.0,30.21,WSW,246,1.0,0.0,53,0.00,,,0.00,WeatherTracker,2013-02-16 05:21:00,
2013-02-15 21:23:00,60.1,42.9,30.21,WSW,240,0.0,0.0,53,0.00,,,0.00,WeatherTracker,2013-02-16 05:23:00,
2013-02-15 21:28:00,60.0,42.8,30.21,WSW,238,0.0,0.0,53,0.00,,,0.00,WeatherTracker,2013-02-16 05:28:00,
2013-02-15 21:33:00,59.8,43.1,30.21,WSW,250,0.0,0.0,54,0.00,,,0.00,WeatherTracker,2013-02-16 05:33:00,
2013-02-15 21:38:00,59.6,43.4,30.21,WSW,239,1.0,0.0,55,0.00,,,0.00,WeatherTracker,2013-02-16 05:38:00,
2013-02-15 21:43:00,59.4,43.2,30.21,WSW,248,0.0,0.0,55,0.00,,,0.00,WeatherTracker,2013-02-16 05:43:00,
2013-02-15 21:48:00,59.3,43.1,30.21,WSW,256,0.0,0.0,55,0.00,,,0.00,WeatherTracker,2013-02-16 05:48:00,
2013-02-15 21:53:00,59.2,43.0,30.21,West,260,0.0,0.0,55,0.00,,,0.00,WeatherTracker,2013-02-16 05:53:00,
2013-02-15 21:58:00,59.1,42.9,30.21,SW,225,0.0,0.0,55,0.00,,,0.00,WeatherTracker,2013-02-16 05:58:00,
2013-02-15 22:03:00,58.8,43.1,30.21,SW,224,0.0,0.0,56,0.00,,,0.00,WeatherTracker,2013-02-16 06:03:00,
2013-02-15 22:08:00,58.6,43.0,30.21,WSW,243,1.0,0.0,56,0.00,,,0.00,WeatherTracker,2013-02-16 06:08:00,
2013-02-15 22:13:00,58.6,43.0,30.21,WSW,254,0.0,0.0,56,0.00,,,0.00,WeatherTracker,2013-02-16 06:13:00,
2013-02-15 22:18:00,58.2,43.0,30.21,WSW,255,0.0,0.0,57,0.00,,,0.00,WeatherTracker,2013-02-16 06:18:00,
2013-02-15 22:23:00,58.2,43.0,30.21,WSW,255,0.0,0.0,57,0.00,,,0.00,WeatherTracker,2013-02-16 06:23:00,
2013-02-15 22:28:00,58.0,42.9,30.21,WSW,253,0.0,0.0,57,0.00,,,0.00,WeatherTracker,2013-02-16 06:28:00,
2013-02-15 22:33:00,57.8,43.1,30.21,WSW,252,0.0,0.0,58,0.00,,,0.00,WeatherTracker,2013-02-16 06:33:00,
2013-02-15 22:38:00,57.7,43.0,30.21,WSW,246,1.0,0.0,58,0.00,,,0.00,WeatherTracker,2013-02-16 06:38:00,
2013-02-15 22:43:00,57.7,43.0,30.21,SW,229,0.0,0.0,58,0.00,,,0.00,WeatherTracker,2013-02-16 06:43:00,
2013-02-15 22:48:00,57.4,43.2,30.21,SW,226,0.0,0.0,59,0.00,,,0.00,WeatherTracker,2013-02-16 06:48:00,
2013-02-15 22:53:00,57.2,43.0,30.21,WSW,240,0.0,0.0,59,0.00,,,0.00,WeatherTracker,2013-02-16 06:53:00,
2013-02-15 22:58:00,57.2,43.0,30.21,WSW,250,0.0,0.0,59,0.00,,,0.00,WeatherTracker,2013-02-16 06:58:00,
2013-02-15 23:03:00,57.8,43.6,30.21,NW,316,1.0,0.0,59,0.00,,,0.00,WeatherTracker,2013-02-16 07:03:00,
2013-02-15 23:08:00,58.0,44.2,30.21,NW,326,2.0,0.0,60,0.00,,,0.00,WeatherTracker,2013-02-16 07:08:00,
2013-02-15 23:13:00,58.2,44.4,30.21,NNW,336,0.0,0.0,60,0.00,,,0.00,WeatherTracker,2013-02-16 07:13:00,
2013-02-15 23:19:00,58.2,44.4,30.21,WNW,298,0.0,0.0,60,0.00,,,0.00,WeatherTracker,2013-02-16 07:19:00,
2013-02-15 23:24:00,58.1,44.7,30.21,WNW,285,1.0,0.0,61,0.00,,,0.00,WeatherTracker,2013-02-16 07:24:00,
2013-02-15 23:29:00,58.2,44.8,30.21,NW,316,1.0,0.0,61,0.00,,,0.00,WeatherTracker,2013-02-16 07:29:00,
2013-02-15 23:34:00,58.1,44.7,30.21,WNW,298,0.0,0.0,61,0.00,,,0.00,WeatherTracker,2013-02-16 07:34:00,
2013-02-15 23:39:00,58.0,44.6,30.21,NW,309,0.0,0.0,61,0.00,,,0.00,WeatherTracker,2013-02-16 07:39:00,
2013-02-15 23:44:00,57.9,45.0,30.21,NW,309,0.0,0.0,62,0.00,,,0.00,WeatherTracker,2013-02-16 07:44:00,
2013-02-15 23:49:00,57.6,44.7,30.21,NW,309,0.0,0.0,62,0.00,,,0.00,WeatherTracker,2013-02-16 07:49:00,
2013-02-15 23:54:00,57.5,45.0,30.21,NW,309,0.0,0.0,63,0.00,,,0.00,WeatherTracker,2013-02-16 07:54:00,
2013-02-15 23:59:00,57.2,44.7,30.21,WNW,285,0.0,0.0,63,0.00,,,0.00,WeatherTracker,2013-02-16 07:59:00,